Weather History for Sturgeon Bay, WI

Change the Weather History Date:

Tuesday, August 27, 2013

  Actual Average Record
Temperature  
Mean Temperature 74 °F -  
Max Temperature 80 °F 77 °F 95 °F (1953)
Min Temperature 69 °F 58 °F 33 °F (1915)
Cooling Degree Days 10    
Growing Degree Days 24 (Base 50)    
Moisture  
Dew Point 70 °F    
Average Humidity 90    
Maximum Humidity 100    
Minimum Humidity 78    
Precipitation  
Precipitation 0.00 in - - ()
Sea Level Pressure  
Sea Level Pressure 29.86 in    
Wind  
Wind Speed 7 mph (NE)    
Max Wind Speed 13 mph    
Max Gust Speed -    
Visibility 8 miles    
Events Thunderstorm    
Averages and records for this station are not official NWS values.
T = Trace of Precipitation, MM = Missing Value Source: NWS Daily Summary

Daily Weather History Graph

Daily Weather History Graph

Search for Another Location

Airport:

Trip Planner

Search our weather history database for the weather conditions in past years. The results will help you decide how hot, cold, wet, or windy it might be!

Date:

Astronomy

Aug. 27, 2013 Rise Set
Actual Time 6:06 AM CDT 7:35 PM CDT
Civil Twilight 5:35 AM CDT 8:05 PM CDT
Nautical Twilight 4:58 AM CDT 8:42 PM CDT
Astronomical Twilight 4:18 AM CDT 9:21 PM CDT
Moon 11:08 PM CDT (8/27) 1:23 PM CDT (8/27)
Length of Visible Light 14h 29m
Length of Day
13h 28m
Waning Gibbous, 57% of the Moon is Illuminated
Aug 27
Waning Gibbous
Aug 28
Last Quarter
Sep 5
New
Sep 12
First Quarter
Sep 19
Full

Hourly Weather History & Observations

Time (CDT) Temp. Heat Index Dew Point Humidity Pressure Visibility Wind Dir Wind Speed Gust Speed Precip Events Conditions
12:15 AM 71.6 °F - 66.2 °F 83% 29.92 in 10.0 mi East 3.5 mph - N/A Thunderstorm Thunderstorm
9:55 AM - - - N/A% 29.88 in - South 11.5 mph - N/A   Unknown
10:15 AM 73.4 °F - 69.8 °F 88% 29.88 in 10.0 mi SSW 10.4 mph - N/A   Clear
10:35 AM 73.4 °F - 69.8 °F 88% 29.88 in 10.0 mi South 10.4 mph - N/A   Clear
10:55 AM 75.2 °F - 71.6 °F 89% 29.87 in 10.0 mi South 9.2 mph - N/A   Clear
11:15 AM 77.0 °F - 71.6 °F 83% 29.87 in 10.0 mi SSW 8.1 mph - N/A   Clear
11:35 AM 78.8 °F - 73.4 °F 83% 29.86 in 10.0 mi South 8.1 mph - N/A   Clear
11:55 AM 80.6 °F 85.4 °F 73.4 °F 79% 29.84 in 10.0 mi SSW 6.9 mph - N/A   Scattered Clouds
12:15 PM 80.6 °F 85.4 °F 73.4 °F 79% 29.85 in 10.0 mi SW 4.6 mph - N/A   Mostly Cloudy
12:35 PM 80.6 °F 85.4 °F 73.4 °F 79% 29.83 in 10.0 mi West 6.9 mph - N/A   Mostly Cloudy
12:55 PM 78.8 °F - 71.6 °F 78% 29.83 in 10.0 mi NNW 9.2 mph - N/A   Mostly Cloudy
1:15 PM 78.8 °F - 71.6 °F 78% 29.83 in 10.0 mi NNW 9.2 mph - N/A   Overcast
1:35 PM 78.8 °F - 71.6 °F 78% 29.83 in 10.0 mi NNW 9.2 mph - N/A   Mostly Cloudy
1:55 PM 78.8 °F - 71.6 °F 78% 29.83 in 10.0 mi North 11.5 mph - N/A   Scattered Clouds
2:15 PM 77.0 °F - 71.6 °F 83% 29.84 in 10.0 mi North 12.7 mph - N/A   Mostly Cloudy
2:35 PM 75.2 °F - 71.6 °F 89% 29.84 in 10.0 mi NE 11.5 mph - N/A   Overcast
2:55 PM 73.4 °F - 69.8 °F 88% 29.84 in 10.0 mi ENE 9.2 mph - N/A   Overcast
3:15 PM 73.4 °F - 69.8 °F 88% 29.84 in 10.0 mi East 8.1 mph - N/A   Overcast
3:35 PM 73.4 °F - 69.8 °F 88% 29.84 in 10.0 mi ENE 8.1 mph - N/A   Overcast
3:55 PM 71.6 °F - 69.8 °F 94% 29.84 in 10.0 mi East 8.1 mph - N/A   Overcast
4:15 PM 71.6 °F - 69.8 °F 94% 29.84 in 9.0 mi East 8.1 mph - N/A   Overcast
4:35 PM 71.6 °F - 68.0 °F 88% 29.85 in 8.0 mi East 6.9 mph - N/A   Overcast
4:55 PM 69.8 °F - 68.0 °F 94% 29.85 in 10.0 mi East 5.8 mph - N/A   Overcast
5:15 PM 69.8 °F - 68.0 °F 94% 29.84 in 10.0 mi ESE 8.1 mph - N/A   Overcast
5:35 PM 69.8 °F - 66.2 °F 88% 29.84 in 10.0 mi ENE 5.8 mph - N/A   Overcast
5:55 PM 69.8 °F - 68.0 °F 94% 29.85 in 10.0 mi ESE 4.6 mph - N/A   Overcast
6:15 PM 69.8 °F - 68.0 °F 94% 29.86 in 10.0 mi Calm Calm - N/A   Mostly Cloudy
6:35 PM 69.8 °F - 68.0 °F 94% 29.85 in 10.0 mi Calm Calm - N/A   Overcast
6:55 PM 69.8 °F - 68.0 °F 94% 29.85 in 7.0 mi North 3.5 mph - N/A   Mostly Cloudy
7:15 PM 69.8 °F - 68.0 °F 94% 29.86 in 6.0 mi Calm Calm - N/A   Overcast
7:35 PM 69.8 °F - 68.0 °F 94% 29.86 in 5.0 mi North 4.6 mph - N/A   Overcast
7:55 PM 69.8 °F - 68.0 °F 94% 29.86 in 4.0 mi North 4.6 mph - N/A   Overcast
8:15 PM 69.8 °F - 68.0 °F 94% 29.86 in 5.0 mi North 8.1 mph - N/A   Overcast
8:35 PM 69.8 °F - 68.0 °F 94% 29.87 in 4.0 mi North 5.8 mph - N/A   Overcast
8:55 PM 69.8 °F - 69.8 °F 100% 29.87 in 1.8 mi NE 9.2 mph - N/A   Overcast
9:15 PM 69.8 °F - 68.0 °F 94% 29.88 in 1.5 mi NE 6.9 mph - N/A   Overcast
9:35 PM 69.8 °F - 69.8 °F 100% 29.89 in 5.0 mi ENE 3.5 mph - N/A   Overcast
9:55 PM 69.8 °F - 68.0 °F 94% 29.89 in 6.0 mi ENE 3.5 mph - N/A   Overcast
10:15 PM 69.8 °F - 68.0 °F 94% 29.89 in 5.0 mi North 3.5 mph - N/A   Overcast
10:35 PM 69.8 °F - 69.8 °F 100% 29.89 in 5.0 mi NNE 3.5 mph - N/A   Overcast
10:55 PM 69.8 °F - 69.8 °F 100% 29.89 in 5.0 mi North 4.6 mph - N/A   Overcast
11:15 PM 69.8 °F - 69.8 °F 100% 29.89 in 6.0 mi North 3.5 mph - N/A   Overcast
11:35 PM 69.8 °F - 68.0 °F 94% 29.89 in 5.0 mi North 3.5 mph - N/A   Overcast
11:55 PM 69.8 °F - 69.8 °F 100% 29.89 in 6.0 mi NNE 3.5 mph - N/A   Overcast